Regional Weather Roundup
Issued by NWS

Home | Current Version | Previous Version | Text Only | Print | Product List | Glossary Off
Versions: 1 2 3 4 5 6 7 8 9 10 11 12 13 14 15 16 17 18 19 20 21 22 23 24 25 26 27 28 29 30 31 32 33 34 35 36 37 38 39 40 41 42 43 44 45 46 47 48 49 50

000
ASUS43 KOAX 230910
RWRNE

WEATHER ROUNDUP FOR NEBRASKA
NATIONAL WEATHER SERVICE OMAHA NE
300 AM CST FRI FEB 23 2018

NOTES: SATELLITE DATA IS BEING USED TO AUGMENT CLOUD COVER ABOVE
       12000 FEET.
       "FAIR" INDICATES FEW OR NO CLOUDS BELOW 12,000 FEET WITH NO
       SIGNIFICANT WEATHER AND/OR OBSTRUCTIONS TO VISIBILITY.


NEZ001>004-019>022-054>056-231000-
NEBRASKA PANHANDLE

CITY           SKY/WX    TMP DP  RH WIND       PRES   REMARKS
SCOTTSBLUFF    MOCLDY     9   6  88 N6        30.09F WCI  -1
ALLIANCE       MOCLDY    -2  -4  91 W8        30.09R WCI -17
CHADRON        PTCLDY    -6 -11  79 SW7       30.15F WCI -20
GORDON         FAIR       1  -4  81 W3        30.10S
KIMBALL        CLEAR     12   9  87 NW12      30.05R WCI  -2
SIDNEY         PTCLDY    16  13  88 NW5       30.06F WCI   9
$$

NEZ057>060-069>072-079>082-231000-
SOUTHWEST NEBRASKA

CITY           SKY/WX    TMP DP  RH WIND       PRES   REMARKS
NORTH PLATTE   PTCLDY     9   4  80 NW8       30.15S WCI  -3
IMPERIAL       CLOUDY    19  17  92 CALM      30.12F
LEXINGTON      CLEAR     11   8  87 NW5       30.17S WCI   2
MCCOOK         FOG       20  20 100 W8        30.17S VSB 3/4 WCI  10
OGALLALA       CLOUDY    16  14  90 W6        30.13R WCI   8
$$

NEZ005>010-023>029-035>040-094-231000-
NORTH CENTRAL NEBRASKA

CITY           SKY/WX    TMP DP  RH WIND       PRES   REMARKS
VALENTINE      CLOUDY    19  15  84 NW6       30.14R WCI  11
AINSWORTH      CLOUDY    18  17  97 NW10      30.13R FOG     WCI   6
BROKEN BOW     PTCLDY    17  13  84 W10       30.13R WCI   5
O`NEILL        CLEAR     13  12  94 W7        30.14R WCI   3
ORD            CLEAR     14  12  92 NW6       30.15R WCI   5
THEDFORD         N/A     10   8  89 SW8       30.14R WCI  -2
$$

NEZ041-046>049-061>064-073>077-083>087-231000-
SOUTH CENTRAL NEBRASKA

CITY           SKY/WX    TMP DP  RH WIND       PRES   REMARKS
GRAND ISLAND   CLEAR     20  17  88 W6        30.18R WCI  12
AURORA         CLEAR     19  18  93 W7        30.18S WCI  10
HASTINGS       CLEAR     23  19  85 W7        30.19R WCI  15
HEBRON         CLOUDY    27  26  94 NW6       30.22R WCI  21
HOLDREGE       CLEAR     20  19  95 W8        30.17R WCI  11
KEARNEY        CLEAR     19  17  92 W8        30.17S WCI   9
YORK           PTCLDY    25  25 100 W7        30.18S WCI  17
$$

NEZ011>018-030>034-042>045-231000-
NORTHEAST NEBRASKA

CITY           SKY/WX    TMP DP  RH WIND       PRES   REMARKS
NORFOLK        CLOUDY    15  14  95 SW9       30.15R WCI   3
ALBION         CLOUDY    14  12  91 CALM      30.16R FOG
BLAIR          CLOUDY    28  26  92 W5        30.16S WCI  23
COLUMBUS       CLEAR     19  16  88 SW3       30.19R FOG
FREMONT        PTCLDY    25  24  96 W6        30.18S FOG     WCI  18
TEKAMAH        CLOUDY    26  24  92 W7        30.17F WCI  18
WAYNE          PTCLDY    18  17  96 CALM      30.15F
$$

NEZ050>053-065>068-078-088>093-231000-
SOUTHEAST NEBRASKA

CITY           SKY/WX    TMP DP  RH WIND       PRES   REMARKS
LINCOLN        MOCLDY    27  25  92 W6        30.22R WCI  20
OMAHA EPPLEY   CLOUDY    30  26  85 W10       30.18S WCI  21
BEATRICE       CLOUDY    31  29  94 W6        30.20S WCI  25
FALLS CITY     CLOUDY    32  32 100 W9        30.20S WCI  24
NEBRASKA CITY  CLOUDY    32  32 100 W6        30.19S FOG     WCI  26
PLATTSMOUTH    CLOUDY    30  28  93 W6        30.18S WCI  24
$$

NEZ044-045-051>053-067-231000-
OMAHA AREA

CITY           SKY/WX    TMP DP  RH WIND       PRES   REMARKS
OMAHA EPPLEY   CLOUDY    30  26  85 W10       30.18S WCI  21
BLAIR          CLOUDY    28  26  92 W5        30.16S WCI  23
FREMONT        PTCLDY    25  24  96 W6        30.18S FOG     WCI  18
MILLARD        CLOUDY    31  27  87 W6        30.19R WCI  25
OFFUTT AFB     CLOUDY    30  27  88 W6        30.17F WCI  24
PLATTSMOUTH    CLOUDY    30  28  93 W6        30.18S WCI  24
WAHOO          FAIR      24  22  92 W7        30.19S WCI  16
$$




USA.gov is the U.S. government's official web portal to all federal, state and local government web resources and services.